Location: Boston
(42.3580°N, 71.0600°W)
Time: 22:12:01
(UTC-04:00)

Tiangong 2 - Pass Details

Date: 12 October 2017
Orbit: 388 x 391 km, 42.8° (Epoch: 23 October)

Event Time Altitude Azimuth Distance (km) Brightness Sun altitude
Exits shadow 05:16:08 69° 200° (SSW) 420 1.0 -18.8°
Maximum altitude 05:16:19 72° 166° (SSE) 413 1.1 -18.8°
Drops below altitude 10° 05:19:31 10° 82° (E) 1,423 5.2 -18.2°
Sets 05:21:36 0° 80° (E) 2,280 6.7 -17.8°
